Flag for U.S.A. Weather past 2 weeks in Alpena, Michigan, U.S.A.

48 °F

Light rain. Overcast.

Feels Like: 45 °F
Forecast: 50 / 57 °F
Wind: 7 mph from East

Location: Alpena County Regional Airport

Current Time: Oct 4, 2015 at 6:05:58 AM

Latest Report: Oct 4, 2015 at 4:54 AM

Visibility: 9 mi

Pressure: 30.33 "Hg

Humidity: 93%

Dew point: 46 °F

Location of AlpenaLocation

Historic Weather in Alpena — Graph


Alpena temperature yesterday

Maximum temperature yesterday: 52 °F (at 1:54 PM)
Minimum temperature yesterday: 48 °F (at 7:54 AM)
Average temperature yesterday: 50 °F

Past Weeks' High & Low Weather Summary

High81 °F (Sep 28, 2:54 PM)100% (Sep 26, 3:56 AM)30.60 "Hg (Sep 26, 3:56 AM)
Low41 °F (Sep 20, 3:54 AM)37% (Sep 22, 4:54 PM)29.63 "Hg (Sep 19, 8:54 AM)
Average58 °F72%30.25 "Hg
* Reported Sep 19 4:54 AM — Oct 4 4:54 AM, Alpena, Weather by CustomWeather, © 2015

Note: Actual official high and low records may vary slightly from our data, if they occured in-between our weather recording intervals... More about our weather records


Alpena weather history for previous 24 hours

Time TempWeatherWind HumidityBarometerVisibility
4:54 AM
Sun, Oct 4
48 °FLight rain. Overcast.7 mph93%30.33 "Hg9 mi
3:59 AM47 °FRain. Fog.7 mph93%30.32 "Hg4 mi
2:54 AM47 °FLight rain. Fog.7 mph93%30.34 "Hg5 mi
2:04 AM47 °FFog.8 mph93%30.35 "Hg4 mi
12:54 AM49 °FMostly cloudy.13 mph77%30.38 "Hg10 mi
10:54 PM
Sat, Oct 3
49 °FLight rain. Overcast.7 mph77%30.40 "Hg10 mi
9:54 PM48 °FLight rain. Mostly cloudy.9 mph80%30.40 "Hg10 mi
8:54 PM49 °FLight rain. Overcast.10 mph71%30.40 "Hg10 mi
7:54 PM51 °FLight rain. Overcast.13 mph56%30.41 "Hg10 mi
6:54 PM50 °FLight rain. More clouds than sun.8 mph63%30.41 "Hg10 mi
5:54 PM50 °FCloudy.13 mph61%30.41 "Hg10 mi
4:54 PM51 °FOvercast.14 mph59%30.42 "Hg10 mi
3:54 PM51 °FMostly cloudy.17 mph56%30.43 "Hg10 mi
2:54 PM52 °FPartly sunny.18 mph55%30.43 "Hg10 mi
1:54 PM52 °FPartly sunny.18 mph53%30.45 "Hg10 mi
12:54 PM51 °FPassing clouds.18 mph52%30.46 "Hg10 mi
11:54 AM50 °FOvercast.17 mph57%30.49 "Hg10 mi
10:54 AM50 °FOvercast.15 mph57%30.50 "Hg10 mi
9:54 AM50 °FOvercast.20 mph54%30.49 "Hg10 mi
8:54 AM49 °FPartly sunny.21 mph55%30.49 "Hg10 mi
7:54 AM48 °FPassing clouds.16 mph56%30.48 "Hg10 mi
6:54 AM49 °FPassing clouds.13 mph55%30.48 "Hg10 mi
Weather by CustomWeather, © 2015

See weather overviewHow to use our weather pages